Time,TemperatureF,DewpointF,PressureIn,WindDirection,WindDirectionDegrees,WindSpeedMPH,WindSpeedGustMPH,Humidity,HourlyPrecipIn,Conditions,Clouds,dailyrainin,SoftwareType,DateUTC
2013-04-12 00:00:00,44.8,42.9,29.95,ENE,66,6.3,8.1,93,0.00,,OVC015,0.00,VWS V13.00,2013-04-12 04:00:00,
2013-04-12 00:02:00,44.8,42.9,29.95,NE,51,5.8,8.7,93,0.00,,OVC015,0.00,VWS V13.00,2013-04-12 04:02:00,
2013-04-12 00:07:00,44.8,42.9,29.95,East,90,5.8,8.7,93,0.00,,OVC015,0.00,VWS V13.00,2013-04-12 04:07:00,
2013-04-12 00:12:00,45.0,42.8,29.95,ENE,69,5.4,8.7,92,0.00,,OVC015,0.00,VWS V13.00,2013-04-12 04:12:00,
2013-04-12 00:17:00,45.0,42.8,29.95,ENE,76,7.6,8.7,92,0.00,,OVC015,0.00,VWS V13.00,2013-04-12 04:17:00,
2013-04-12 00:22:00,45.0,42.8,29.92,SE,125,7.6,8.1,92,0.00,,OVC015,0.00,VWS V13.00,2013-04-12 04:22:00,
2013-04-12 00:27:00,44.8,42.6,29.92,East,88,5.8,8.3,92,0.00,,OVC015,0.00,VWS V13.00,2013-04-12 04:27:00,
2013-04-12 00:32:00,44.8,42.3,29.92,ENE,66,5.8,8.3,91,0.00,,OVC015,0.00,VWS V13.00,2013-04-12 04:32:00,
2013-04-12 00:37:00,44.8,42.0,29.92,East,81,5.8,8.3,90,0.00,,OVC015,0.00,VWS V13.00,2013-04-12 04:37:00,
2013-04-12 00:42:00,44.8,41.7,29.92,ENE,75,4.9,8.1,89,0.00,,OVC015,0.00,VWS V13.00,2013-04-12 04:42:00,
2013-04-12 00:48:00,44.8,41.5,29.92,ENE,65,5.4,8.1,88,0.00,,OVC015,0.00,VWS V13.00,2013-04-12 04:48:00,
2013-04-12 00:53:00,44.8,41.2,29.92,East,91,6.3,8.7,87,0.00,,OVC015,0.00,VWS V13.00,2013-04-12 04:53:00,
2013-04-12 00:58:00,44.8,40.9,29.92,NE,51,5.4,8.7,86,0.00,,OVC015,0.00,VWS V13.00,2013-04-12 04:58:00,
2013-04-12 01:03:00,44.8,40.9,29.92,ENE,68,7.6,7.6,86,0.00,,OVC015,0.00,VWS V13.00,2013-04-12 05:03:00,
2013-04-12 01:08:00,44.6,40.1,29.92,ENE,63,7.6,9.6,84,0.00,,OVC015,0.00,VWS V13.00,2013-04-12 05:08:00,
2013-04-12 01:13:00,44.6,39.8,29.92,ENE,62,4.0,9.6,83,0.00,,OVC015,0.00,VWS V13.00,2013-04-12 05:13:00,
2013-04-12 01:18:00,44.4,39.3,29.92,ENE,64,4.9,9.6,82,0.00,,OVC015,0.00,VWS V13.00,2013-04-12 05:18:00,
2013-04-12 01:23:00,44.6,39.5,29.92,East,83,7.6,7.6,82,0.00,,OVC015,0.00,VWS V13.00,2013-04-12 05:23:00,
2013-04-12 01:28:00,44.4,39.3,29.92,East,80,6.3,8.1,82,0.00,,OVC015,0.00,VWS V13.00,2013-04-12 05:28:00,
2013-04-12 01:33:00,44.6,39.1,29.92,East,85,7.6,8.3,81,0.00,,OVC015,0.00,VWS V13.00,2013-04-12 05:33:00,
2013-04-12 01:38:00,44.4,39.0,29.92,East,85,5.4,8.3,81,0.00,,OVC015,0.00,VWS V13.00,2013-04-12 05:38:00,
2013-04-12 01:43:00,44.6,38.8,29.92,East,87,8.1,10.5,80,0.00,,OVC015,0.00,VWS V13.00,2013-04-12 05:43:00,
2013-04-12 01:48:00,44.4,38.7,29.92,ENE,74,6.3,10.5,80,0.00,,OVC015,0.00,VWS V13.00,2013-04-12 05:48:00,
2013-04-12 01:53:00,44.4,38.0,29.92,ENE,72,6.3,10.5,78,0.00,,OVC015,0.00,VWS V13.00,2013-04-12 05:53:00,
2013-04-12 01:58:00,44.4,37.7,29.92,NE,50,5.8,10.5,77,0.00,,OVC015,0.00,VWS V13.00,2013-04-12 05:58:00,
2013-04-12 02:03:00,44.2,36.8,29.92,ENE,74,5.8,8.7,75,0.00,,OVC015,0.00,VWS V13.00,2013-04-12 06:03:00,
2013-04-12 02:08:00,44.2,36.8,29.92,East,94,7.6,8.7,75,0.00,,OVC015,0.00,VWS V13.00,2013-04-12 06:08:00,
2013-04-12 02:13:00,44.1,36.7,29.92,East,92,6.3,8.7,75,0.00,,OVC015,0.00,VWS V13.00,2013-04-12 06:13:00,
2013-04-12 02:18:00,44.1,36.3,29.92,East,81,4.0,8.7,74,0.00,,OVC015,0.00,VWS V13.00,2013-04-12 06:18:00,
2013-04-12 02:23:00,44.1,36.3,29.92,ENE,65,5.8,8.1,74,0.00,,OVC015,0.00,VWS V13.00,2013-04-12 06:23:00,
2013-04-12 02:28:00,44.1,36.0,29.92,ENE,78,3.6,8.7,73,0.00,,OVC015,0.00,VWS V13.00,2013-04-12 06:28:00,
2013-04-12 02:33:00,44.1,36.0,29.92,ENE,69,6.7,8.7,73,0.00,,OVC015,0.00,VWS V13.00,2013-04-12 06:33:00,
2013-04-12 02:38:00,44.1,36.0,29.92,East,91,4.9,10.1,73,0.00,,OVC015,0.00,VWS V13.00,2013-04-12 06:38:00,
2013-04-12 02:44:00,44.1,36.0,29.92,East,79,5.4,6.3,73,0.00,,OVC015,0.00,VWS V13.00,2013-04-12 06:44:00,
2013-04-12 02:49:00,44.1,36.0,29.92,ENE,75,6.3,6.3,73,0.00,,OVC015,0.00,VWS V13.00,2013-04-12 06:49:00,
2013-04-12 02:54:00,44.1,36.0,29.92,ENE,66,5.8,8.3,73,0.00,,OVC015,0.00,VWS V13.00,2013-04-12 06:54:00,
2013-04-12 02:59:00,44.1,36.0,29.92,East,80,5.8,8.3,73,0.00,,OVC015,0.00,VWS V13.00,2013-04-12 06:59:00,
2013-04-12 03:04:00,44.1,36.0,29.92,ENE,77,4.0,7.6,73,0.00,,OVC015,0.00,VWS V13.00,2013-04-12 07:04:00,
2013-04-12 03:09:00,44.1,36.0,29.92,ENE,74,6.3,8.1,73,0.00,,OVC015,0.00,VWS V13.00,2013-04-12 07:09:00,
2013-04-12 03:14:00,43.9,35.8,29.92,East,80,5.8,8.7,73,0.00,,OVC015,0.00,VWS V13.00,2013-04-12 07:14:00,
2013-04-12 03:19:00,43.9,36.1,29.92,ENE,68,5.8,8.7,74,0.00,,OVC015,0.00,VWS V13.00,2013-04-12 07:19:00,
2013-04-12 03:24:00,43.7,36.0,29.89,NE,54,4.0,7.6,74,0.00,,OVC015,0.00,VWS V13.00,2013-04-12 07:24:00,
2013-04-12 03:29:00,43.7,36.0,29.89,East,100,8.1,10.5,74,0.00,,OVC015,0.00,VWS V13.00,2013-04-12 07:29:00,
2013-04-12 03:34:00,43.7,36.0,29.89,East,87,4.9,10.5,74,0.00,,OVC015,0.00,VWS V13.00,2013-04-12 07:34:00,
2013-04-12 03:39:00,43.5,35.8,29.89,East,94,6.3,10.5,74,0.00,,OVC015,0.00,VWS V13.00,2013-04-12 07:39:00,
2013-04-12 03:44:00,43.5,35.8,29.89,ESE,110,6.3,8.1,74,0.00,,OVC015,0.00,VWS V13.00,2013-04-12 07:44:00,
2013-04-12 03:49:00,43.3,35.6,29.89,East,90,5.4,8.3,74,0.00,,OVC015,0.00,VWS V13.00,2013-04-12 07:49:00,
2013-04-12 03:54:00,43.3,36.0,29.89,ENE,71,8.3,8.3,75,0.00,,OVC015,0.00,VWS V13.00,2013-04-12 07:54:00,
2013-04-12 03:59:00,43.3,36.3,29.89,East,81,8.3,8.3,76,0.00,,OVC015,0.00,VWS V13.00,2013-04-12 07:59:00,
2013-04-12 04:04:00,43.3,36.3,29.89,ENE,75,5.8,6.3,76,0.00,,OVC015,0.00,VWS V13.00,2013-04-12 08:04:00,
2013-04-12 04:09:00,43.0,36.3,29.89,East,82,5.4,7.6,77,0.00,,OVC015,0.00,VWS V13.00,2013-04-12 08:09:00,
2013-04-12 04:14:00,43.0,36.3,29.89,ENE,73,6.3,8.7,77,0.00,,OVC015,0.00,VWS V13.00,2013-04-12 08:14:00,
2013-04-12 04:19:00,43.0,36.6,29.89,East,88,10.1,11.4,78,0.00,,OVC015,0.00,VWS V13.00,2013-04-12 08:19:00,
2013-04-12 04:24:00,42.8,36.8,29.89,NE,54,8.7,9.6,79,0.00,,OVC015,0.00,VWS V13.00,2013-04-12 08:24:00,
2013-04-12 04:29:00,42.8,36.8,29.89,ENE,69,5.8,9.6,79,0.00,,OVC015,0.00,VWS V13.00,2013-04-12 08:29:00,
2013-04-12 04:34:00,42.6,36.6,29.89,ENE,72,7.2,9.6,79,0.00,,OVC015,0.00,VWS V13.00,2013-04-12 08:34:00,
2013-04-12 04:39:00,42.4,36.7,29.89,East,86,4.9,11.4,80,0.00,,OVC015,0.00,VWS V13.00,2013-04-12 08:39:00,
2013-04-12 04:44:00,42.4,37.0,29.89,NNE,31,2.7,6.3,81,0.00,,OVC015,0.00,VWS V13.00,2013-04-12 08:44:00,
2013-04-12 04:50:00,42.4,37.0,29.89,ENE,66,4.0,6.3,81,0.00,,OVC015,0.00,VWS V13.00,2013-04-12 08:50:00,
2013-04-12 04:55:00,42.4,37.3,29.89,NE,49,5.8,8.7,82,0.00,,OVC015,0.00,VWS V13.00,2013-04-12 08:55:00,
2013-04-12 05:00:00,42.3,37.5,29.89,East,79,6.3,8.7,83,0.00,,OVC015,0.00,VWS V13.00,2013-04-12 09:00:00,
2013-04-12 05:05:00,42.3,37.5,29.89,East,84,5.4,10.1,83,0.00,,OVC015,0.00,VWS V13.00,2013-04-12 09:05:00,
2013-04-12 05:10:00,42.1,37.6,29.86,East,87,8.3,10.1,84,0.00,,OVC015,0.00,VWS V13.00,2013-04-12 09:10:00,
2013-04-12 05:15:00,42.1,37.9,29.86,ENE,64,6.3,10.1,85,0.00,,OVC015,0.00,VWS V13.00,2013-04-12 09:15:00,
2013-04-12 05:20:00,42.1,38.2,29.86,ENE,77,6.3,10.1,86,0.00,,OVC015,0.00,VWS V13.00,2013-04-12 09:20:00,
2013-04-12 05:25:00,42.1,38.2,29.86,East,82,5.4,8.1,86,0.00,,OVC015,0.00,VWS V13.00,2013-04-12 09:25:00,
2013-04-12 05:30:00,42.1,38.5,29.86,ENE,73,7.6,10.5,87,0.00,,OVC015,0.00,VWS V13.00,2013-04-12 09:30:00,
2013-04-12 05:35:00,41.7,38.1,29.86,East,88,6.3,10.5,87,0.00,,OVC015,0.00,VWS V13.00,2013-04-12 09:35:00,
2013-04-12 05:40:00,41.7,38.4,29.86,ENE,71,5.4,10.5,88,0.00,,OVC015,0.00,VWS V13.00,2013-04-12 09:40:00,
2013-04-12 05:45:00,41.5,38.3,29.86,ENE,74,6.3,8.1,88,0.00,,OVC015,0.00,VWS V13.00,2013-04-12 09:45:00,
2013-04-12 05:50:00,41.2,38.2,29.86,NE,50,6.3,8.7,89,0.00,,OVC015,0.00,VWS V13.00,2013-04-12 09:50:00,
2013-04-12 05:55:00,41.2,38.5,29.86,ENE,64,7.6,11.0,90,0.00,,OVC015,0.00,VWS V13.00,2013-04-12 09:55:00,
2013-04-12 06:00:00,41.2,38.5,29.86,ESE,109,4.0,11.0,90,0.00,,OVC015,0.00,VWS V13.00,2013-04-12 10:00:00,
2013-04-12 06:05:00,41.0,38.6,29.86,East,81,5.4,8.1,91,0.00,,OVC015,0.00,VWS V13.00,2013-04-12 10:05:00,
2013-04-12 06:10:00,41.0,38.6,29.86,SE,135,5.4,8.1,91,0.00,,OVC015,0.00,VWS V13.00,2013-04-12 10:10:00,
2013-04-12 06:15:00,41.2,38.8,29.86,ENE,74,7.6,8.7,91,0.00,,OVC015,0.00,VWS V13.00,2013-04-12 10:15:00,
2013-04-12 06:20:00,40.8,38.7,29.86,ENE,70,8.1,11.0,92,0.00,,OVC015,0.00,VWS V13.00,2013-04-12 10:20:00,
2013-04-12 06:25:00,41.0,39.1,29.83,ENE,62,8.1,10.5,93,0.00,,OVC015,0.00,VWS V13.00,2013-04-12 10:25:00,
2013-04-12 06:30:00,40.6,38.8,29.83,East,89,5.8,11.0,93,0.00,,OVC015,0.00,VWS V13.00,2013-04-12 10:30:00,
2013-04-12 06:35:00,40.5,38.9,29.83,East,89,7.6,11.0,94,0.00,,OVC015,0.00,VWS V13.00,2013-04-12 10:35:00,
2013-04-12 06:40:00,40.6,39.0,29.83,ENE,69,8.1,8.1,94,0.00,,OVC015,0.00,VWS V13.00,2013-04-12 10:40:00,
2013-04-12 06:45:00,40.6,39.0,29.83,East,89,7.6,10.5,94,0.00,,OVC015,0.00,VWS V13.00,2013-04-12 10:45:00,
2013-04-12 06:51:00,40.5,39.1,29.83,ESE,119,8.1,12.3,95,0.00,,OVC015,0.00,VWS V13.00,2013-04-12 10:51:00,
2013-04-12 06:56:00,40.5,39.1,29.83,NE,45,7.6,12.3,95,0.00,,OVC015,0.00,VWS V13.00,2013-04-12 10:56:00,
2013-04-12 07:01:00,40.5,39.1,29.83,ENE,74,9.2,11.4,95,0.00,,OVC015,0.00,VWS V13.00,2013-04-12 11:01:00,
2013-04-12 07:06:00,40.3,39.0,29.83,NE,47,9.6,11.4,95,0.00,,OVC015,0.00,VWS V13.00,2013-04-12 11:06:00,
2013-04-12 07:11:00,40.3,39.2,29.83,East,95,8.3,11.4,96,0.00,,OVC015,0.00,VWS V13.00,2013-04-12 11:11:00,
2013-04-12 07:16:00,39.9,38.9,29.83,East,96,7.6,11.4,96,0.00,,OVC015,0.00,VWS V13.00,2013-04-12 11:16:00,
2013-04-12 07:22:00,40.1,39.0,29.83,ENE,61,5.4,10.1,96,0.00,,OVC015,0.00,VWS V13.00,2013-04-12 11:22:00,
2013-04-12 07:27:00,39.9,38.9,29.80,ENE,77,6.7,12.8,96,0.00,,OVC015,0.00,VWS V13.00,2013-04-12 11:27:00,
2013-04-12 07:32:00,39.9,38.9,29.80,NE,51,8.3,12.8,96,0.00,,OVC015,0.00,VWS V13.00,2013-04-12 11:32:00,
2013-04-12 07:37:00,39.7,38.7,29.80,ENE,71,7.6,12.8,96,0.00,,OVC015,0.00,VWS V13.00,2013-04-12 11:37:00,
2013-04-12 07:42:00,39.7,39.0,29.80,ENE,70,8.1,8.7,97,0.00,,OVC015,0.00,VWS V13.00,2013-04-12 11:42:00,
2013-04-12 07:47:00,39.7,39.0,29.80,ENE,61,8.7,10.1,97,0.00,,OVC015,0.00,VWS V13.00,2013-04-12 11:47:00,
2013-04-12 07:52:00,39.4,38.6,29.80,ESE,115,8.1,12.3,97,0.00,,OVC015,0.00,VWS V13.00,2013-04-12 11:52:00,
2013-04-12 07:57:00,39.4,38.6,29.80,East,97,6.3,12.8,97,0.00,,OVC015,0.00,VWS V13.00,2013-04-12 11:57:00,
2013-04-12 08:02:00,39.2,38.4,29.80,ESE,104,7.6,8.3,97,0.00,,OVC015,0.00,VWS V13.00,2013-04-12 12:02:00,
2013-04-12 08:07:00,39.2,38.4,29.80,East,86,3.1,9.2,97,0.00,,OVC015,0.00,VWS V13.00,2013-04-12 12:07:00,
2013-04-12 08:12:00,39.2,38.4,29.83,ENE,67,5.4,9.2,97,0.00,,OVC015,0.00,VWS V13.00,2013-04-12 12:12:00,
2013-04-12 08:18:00,39.2,38.4,29.83,ENE,77,6.3,11.0,97,0.00,,OVC015,0.00,VWS V13.00,2013-04-12 12:18:00,
2013-04-12 08:23:00,39.4,38.6,29.80,East,101,8.7,8.7,97,0.00,,OVC015,0.00,VWS V13.00,2013-04-12 12:23:00,
2013-04-12 08:28:00,39.4,38.6,29.80,East,82,5.4,10.5,97,0.00,,OVC015,0.00,VWS V13.00,2013-04-12 12:28:00,
2013-04-12 08:33:00,39.4,38.6,29.80,East,87,5.8,10.5,97,0.00,,OVC015,0.00,VWS V13.00,2013-04-12 12:33:00,
2013-04-12 08:38:00,39.4,38.6,29.80,NE,55,5.8,11.0,97,0.00,,OVC015,0.00,VWS V13.00,2013-04-12 12:38:00,
2013-04-12 08:43:00,39.2,38.4,29.80,East,91,5.4,11.0,97,0.00,,OVC015,0.00,VWS V13.00,2013-04-12 12:43:00,
2013-04-12 08:48:00,39.0,38.2,29.80,East,85,10.1,13.2,97,0.00,,OVC015,0.00,VWS V13.00,2013-04-12 12:48:00,
2013-04-12 08:53:00,39.0,38.2,29.80,SSE,162,11.0,13.2,97,0.00,,OVC015,0.00,VWS V13.00,2013-04-12 12:53:00,
2013-04-12 08:58:00,39.0,38.2,29.80,East,96,6.3,13.2,97,0.00,,OVC015,0.00,VWS V13.00,2013-04-12 12:58:00,
2013-04-12 09:03:00,38.8,38.1,29.80,ESE,105,7.2,13.2,97,0.00,,OVC015,0.00,VWS V13.00,2013-04-12 13:03:00,
2013-04-12 09:08:00,38.8,38.1,29.78,ENE,57,6.3,13.2,97,0.00,,OVC015,0.00,VWS V13.00,2013-04-12 13:08:00,
2013-04-12 09:13:00,38.7,37.9,29.78,ENE,59,6.3,13.2,97,0.00,,OVC015,0.00,VWS V13.00,2013-04-12 13:13:00,
2013-04-12 09:18:00,38.8,38.1,29.78,East,94,6.7,13.2,97,0.00,,OVC015,0.00,VWS V13.00,2013-04-12 13:18:00,
2013-04-12 09:23:00,38.8,38.1,29.80,East,86,8.1,8.3,97,0.00,,OVC015,0.00,VWS V13.00,2013-04-12 13:23:00,
2013-04-12 09:28:00,38.7,37.9,29.80,ESE,112,8.3,13.2,97,0.00,,OVC015,0.00,VWS V13.00,2013-04-12 13:28:00,
2013-04-12 09:33:00,38.5,37.7,29.80,ENE,69,6.3,13.2,97,0.00,,OVC015,0.00,VWS V13.00,2013-04-12 13:33:00,
2013-04-12 09:38:00,38.5,38.0,29.80,ENE,76,8.7,13.2,98,0.00,,OVC015,0.00,VWS V13.00,2013-04-12 13:38:00,
2013-04-12 09:43:00,38.7,38.2,29.80,East,100,8.3,12.8,98,0.00,,OVC015,0.00,VWS V13.00,2013-04-12 13:43:00,
2013-04-12 09:48:00,38.7,38.2,29.80,ENE,65,6.3,12.8,98,0.00,,OVC015,0.00,VWS V13.00,2013-04-12 13:48:00,
2013-04-12 09:54:00,38.7,38.2,29.78,ENE,77,5.4,12.8,98,0.00,,OVC015,0.00,VWS V13.00,2013-04-12 13:54:00,
2013-04-12 09:59:00,38.7,38.2,29.78,East,91,6.3,12.8,98,0.00,,OVC015,0.00,VWS V13.00,2013-04-12 13:59:00,
2013-04-12 10:04:00,38.5,38.0,29.78,East,90,8.1,10.1,98,0.00,,OVC015,0.00,VWS V13.00,2013-04-12 14:04:00,
2013-04-12 10:09:00,38.8,38.3,29.78,ENE,68,6.3,10.5,98,0.00,,OVC015,0.00,VWS V13.00,2013-04-12 14:09:00,
2013-04-12 10:14:00,38.8,38.3,29.78,East,84,5.8,10.5,98,0.00,,OVC015,0.00,VWS V13.00,2013-04-12 14:14:00,
2013-04-12 10:19:00,38.8,38.3,29.78,East,94,10.5,10.5,98,0.00,,OVC015,0.00,VWS V13.00,2013-04-12 14:19:00,
2013-04-12 10:24:00,38.7,38.2,29.78,East,84,8.7,11.9,98,0.00,,OVC015,0.00,VWS V13.00,2013-04-12 14:24:00,
2013-04-12 10:29:00,38.7,38.2,29.78,East,93,8.3,11.9,98,0.00,,OVC015,0.00,VWS V13.00,2013-04-12 14:29:00,
2013-04-12 10:34:00,38.7,38.2,29.78,SE,135,4.9,11.9,98,0.00,,OVC015,0.00,VWS V13.00,2013-04-12 14:34:00,
2013-04-12 10:39:00,39.0,38.5,29.80,East,99,11.0,11.9,98,0.00,,OVC015,0.00,VWS V13.00,2013-04-12 14:39:00,
2013-04-12 10:44:00,39.0,38.5,29.80,WSW,254,5.4,8.3,98,0.00,,OVC015,0.00,VWS V13.00,2013-04-12 14:44:00,
2013-04-12 10:49:00,38.8,38.3,29.80,East,87,4.9,8.3,98,0.00,,OVC015,0.00,VWS V13.00,2013-04-12 14:49:00,
2013-04-12 10:54:00,38.8,38.3,29.80,ENE,69,8.1,8.3,98,0.00,,OVC015,0.00,VWS V13.00,2013-04-12 14:54:00,
2013-04-12 10:59:00,38.8,38.3,29.80,ENE,78,4.0,10.1,98,0.00,,OVC015,0.00,VWS V13.00,2013-04-12 14:59:00,
2013-04-12 11:04:00,39.4,38.9,29.80,ENE,69,5.8,6.7,98,0.00,,OVC015,0.00,VWS V13.00,2013-04-12 15:04:00,
2013-04-12 11:09:00,39.4,38.9,29.80,East,89,6.3,6.7,98,0.00,,OVC015,0.00,VWS V13.00,2013-04-12 15:09:00,
2013-04-12 11:15:00,39.2,38.7,29.80,East,92,7.6,10.1,98,0.00,,OVC015,0.00,VWS V13.00,2013-04-12 15:15:00,
2013-04-12 11:20:00,39.0,38.5,29.80,ENE,72,8.1,10.1,98,0.00,,OVC015,0.00,VWS V13.00,2013-04-12 15:20:00,
2013-04-12 11:25:00,39.0,38.5,29.80,East,94,10.1,10.5,98,0.00,,OVC015,0.00,VWS V13.00,2013-04-12 15:25:00,
2013-04-12 11:30:00,39.4,38.9,29.80,ENE,63,6.3,11.0,98,0.00,,OVC015,0.00,VWS V13.00,2013-04-12 15:30:00,
2013-04-12 11:35:00,39.2,38.7,29.80,SE,128,8.7,12.3,98,0.00,,OVC015,0.00,VWS V13.00,2013-04-12 15:35:00,
2013-04-12 11:40:00,39.6,39.0,29.78,East,83,4.9,12.3,98,0.00,,OVC015,0.00,VWS V13.00,2013-04-12 15:40:00,
2013-04-12 11:45:00,39.6,39.0,29.78,East,90,10.5,10.5,98,0.00,,OVC015,0.00,VWS V13.00,2013-04-12 15:45:00,
2013-04-12 11:50:00,39.4,38.9,29.78,East,100,7.6,10.5,98,0.00,,OVC015,0.00,VWS V13.00,2013-04-12 15:50:00,
2013-04-12 11:55:00,39.4,38.9,29.78,ENE,64,3.6,10.5,98,0.00,,OVC015,0.00,VWS V13.00,2013-04-12 15:55:00,
2013-04-12 12:00:00,39.6,39.0,29.78,East,87,5.8,10.5,98,0.00,,OVC015,0.00,VWS V13.00,2013-04-12 16:00:00,
2013-04-12 12:05:00,39.4,38.9,29.78,NNE,19,3.1,7.6,98,0.00,,OVC015,0.00,VWS V13.00,2013-04-12 16:05:00,
2013-04-12 12:10:00,39.4,38.9,29.78,ENE,58,7.2,10.1,98,0.00,,OVC015,0.00,VWS V13.00,2013-04-12 16:10:00,
2013-04-12 12:15:00,39.9,39.4,29.78,ESE,108,8.1,10.5,98,0.00,,OVC015,0.00,VWS V13.00,2013-04-12 16:15:00,
2013-04-12 12:20:00,39.9,39.4,29.78,NE,52,5.8,10.5,98,0.00,,OVC015,0.00,VWS V13.00,2013-04-12 16:20:00,
2013-04-12 12:25:00,39.9,39.4,29.75,ENE,75,4.0,8.7,98,0.00,,OVC015,0.00,VWS V13.00,2013-04-12 16:25:00,
2013-04-12 12:30:00,40.3,39.8,29.75,ENE,75,5.8,9.2,98,0.00,,OVC015,0.00,VWS V13.00,2013-04-12 16:30:00,
2013-04-12 12:35:00,40.3,39.8,29.75,East,88,8.3,9.2,98,0.00,,OVC015,0.00,VWS V13.00,2013-04-12 16:35:00,
2013-04-12 12:40:00,40.1,39.6,29.75,ENE,62,7.6,7.6,98,0.00,,OVC015,0.00,VWS V13.00,2013-04-12 16:40:00,
2013-04-12 12:45:00,40.1,39.6,29.75,East,79,8.1,8.3,98,0.00,,OVC015,0.00,VWS V13.00,2013-04-12 16:45:00,
2013-04-12 12:50:00,40.3,39.8,29.75,NE,49,7.6,8.3,98,0.00,,OVC015,0.00,VWS V13.00,2013-04-12 16:50:00,
2013-04-12 12:55:00,39.9,39.4,29.75,East,90,8.1,11.0,98,0.00,,OVC015,0.00,VWS V13.00,2013-04-12 16:55:00,
2013-04-12 13:00:00,39.9,39.4,29.75,ESE,102,6.3,6.3,98,0.00,,OVC015,0.00,VWS V13.00,2013-04-12 17:00:00,
2013-04-12 13:06:00,40.1,39.6,29.75,East,82,6.3,8.7,98,0.00,,OVC015,0.00,VWS V13.00,2013-04-12 17:06:00,
2013-04-12 13:11:00,39.9,39.4,29.75,NE,45,5.8,10.5,98,0.00,,OVC015,0.00,VWS V13.00,2013-04-12 17:11:00,
2013-04-12 13:16:00,40.1,39.6,29.75,East,88,6.3,10.5,98,0.00,,OVC015,0.00,VWS V13.00,2013-04-12 17:16:00,
2013-04-12 13:21:00,40.3,39.8,29.75,East,88,7.6,7.6,98,0.00,,OVC015,0.00,VWS V13.00,2013-04-12 17:21:00,
2013-04-12 13:26:00,40.3,39.8,29.75,ENE,71,6.3,8.1,98,0.00,,OVC015,0.00,VWS V13.00,2013-04-12 17:26:00,
2013-04-12 13:32:00,40.5,39.9,29.75,East,90,7.6,11.0,98,0.00,,OVC015,0.00,VWS V13.00,2013-04-12 17:32:00,
2013-04-12 13:37:00,40.1,39.6,29.75,East,81,8.7,11.0,98,0.00,,OVC015,0.00,VWS V13.00,2013-04-12 17:37:00,
2013-04-12 13:42:00,40.3,39.8,29.75,East,82,10.5,10.5,98,0.00,,OVC015,0.00,VWS V13.00,2013-04-12 17:42:00,
2013-04-12 13:47:00,40.3,39.8,29.75,East,93,5.8,10.5,98,0.00,,OVC015,0.00,VWS V13.00,2013-04-12 17:47:00,
2013-04-12 13:52:00,40.3,39.8,29.72,ENE,69,6.3,10.5,98,0.00,,OVC015,0.00,VWS V13.00,2013-04-12 17:52:00,
2013-04-12 13:58:00,40.3,39.8,29.72,ENE,58,7.6,10.5,98,0.00,,OVC015,0.00,VWS V13.00,2013-04-12 17:58:00,
2013-04-12 14:03:00,40.5,39.9,29.72,NE,51,6.7,7.6,98,0.00,,OVC015,0.00,VWS V13.00,2013-04-12 18:03:00,
2013-04-12 14:09:00,40.3,39.8,29.72,ENE,74,5.8,8.3,98,0.00,,OVC015,0.00,VWS V13.00,2013-04-12 18:09:00,
2013-04-12 14:14:00,40.6,40.1,29.72,ENE,68,8.1,8.3,98,0.00,,OVC015,0.00,VWS V13.00,2013-04-12 18:14:00,
2013-04-12 14:20:00,40.5,39.9,29.72,ENE,77,5.8,8.7,98,0.00,,OVC015,0.00,VWS V13.00,2013-04-12 18:20:00,
2013-04-12 14:25:00,40.6,40.1,29.72,ENE,74,5.8,8.3,98,0.00,,OVC015,0.00,VWS V13.00,2013-04-12 18:25:00,
2013-04-12 15:26:00,41.0,40.5,29.69,ENE,68,5.4,9.6,98,0.00,,OVC015,0.00,VWS V13.00,2013-04-12 19:26:00,
2013-04-12 15:27:00,41.0,40.5,29.69,ENE,66,7.2,9.6,98,0.00,,OVC015,0.00,VWS V13.00,2013-04-12 19:27:00,
2013-04-12 15:28:00,41.0,40.5,29.69,NE,53,5.4,9.6,98,0.00,,OVC015,0.00,VWS V13.00,2013-04-12 19:28:00,
2013-04-12 15:33:00,41.0,40.5,29.69,East,81,8.3,9.6,98,0.00,,OVC015,0.00,VWS V13.00,2013-04-12 19:33:00,
2013-04-12 15:39:00,41.2,40.7,29.69,ENE,78,6.3,9.6,98,0.00,,OVC015,0.00,VWS V13.00,2013-04-12 19:39:00,
2013-04-12 15:44:00,41.2,40.7,29.69,ENE,61,7.6,8.1,98,0.00,,OVC015,0.00,VWS V13.00,2013-04-12 19:44:00,
2013-04-12 15:49:00,41.0,40.5,29.69,ENE,69,8.1,8.7,98,0.00,,OVC015,0.00,VWS V13.00,2013-04-12 19:49:00,
2013-04-12 15:54:00,41.5,41.0,29.69,ENE,61,6.3,8.7,98,0.00,,OVC015,0.00,VWS V13.00,2013-04-12 19:54:00,
2013-04-12 15:59:00,41.4,40.8,29.69,ENE,69,5.8,8.7,98,0.00,,OVC015,0.00,VWS V13.00,2013-04-12 19:59:00,
2013-04-12 16:04:00,41.4,40.8,29.69,NE,49,5.4,5.8,98,0.00,,OVC015,0.00,VWS V13.00,2013-04-12 20:04:00,
2013-04-12 16:09:00,41.0,40.5,29.69,NE,43,6.3,7.6,98,0.00,,OVC015,0.00,VWS V13.00,2013-04-12 20:09:00,
2013-04-12 16:14:00,41.4,40.8,29.69,ENE,74,6.3,8.1,98,0.00,,OVC015,0.00,VWS V13.00,2013-04-12 20:14:00,
2013-04-12 16:19:00,41.4,40.8,29.69,ENE,72,8.1,8.1,98,0.00,,OVC015,0.00,VWS V13.00,2013-04-12 20:19:00,
2013-04-12 16:24:00,41.0,40.5,29.69,ENE,63,6.3,8.3,98,0.00,,OVC015,0.00,VWS V13.00,2013-04-12 20:24:00,
2013-04-12 16:29:00,41.0,40.5,29.69,ENE,71,6.3,8.3,98,0.00,,OVC015,0.00,VWS V13.00,2013-04-12 20:29:00,
2013-04-12 16:34:00,41.4,40.8,29.69,ENE,69,5.8,8.3,98,0.00,,OVC015,0.00,VWS V13.00,2013-04-12 20:34:00,
2013-04-12 16:39:00,41.2,40.7,29.69,ENE,69,5.8,8.3,98,0.00,,OVC015,0.00,VWS V13.00,2013-04-12 20:39:00,
2013-04-12 16:44:00,41.2,40.7,29.69,ENE,75,4.9,8.3,98,0.00,,OVC015,0.00,VWS V13.00,2013-04-12 20:44:00,
2013-04-12 16:49:00,41.2,40.7,29.69,ENE,73,5.8,8.3,98,0.00,,OVC015,0.00,VWS V13.00,2013-04-12 20:49:00,
2013-04-12 16:54:00,41.2,40.7,29.69,ENE,69,6.7,8.3,98,0.00,,OVC015,0.00,VWS V13.00,2013-04-12 20:54:00,
2013-04-12 16:59:00,41.2,40.7,29.69,East,88,7.6,8.3,98,0.00,,OVC015,0.00,VWS V13.00,2013-04-12 20:59:00,
2013-04-12 17:04:00,41.0,40.5,29.69,East,81,5.8,6.3,98,0.00,,OVC015,0.00,VWS V13.00,2013-04-12 21:04:00,
2013-04-12 17:09:00,41.2,40.7,29.69,ENE,58,4.9,6.3,98,0.00,,OVC015,0.00,VWS V13.00,2013-04-12 21:09:00,
2013-04-12 17:15:00,41.0,40.5,29.69,ENE,77,5.8,6.3,98,0.00,,OVC015,0.00,VWS V13.00,2013-04-12 21:15:00,
2013-04-12 17:20:00,41.2,40.7,29.69,NE,56,5.4,6.3,98,0.00,,OVC015,0.00,VWS V13.00,2013-04-12 21:20:00,
2013-04-12 17:25:00,41.2,40.7,29.69,ENE,69,5.4,6.3,98,0.00,,OVC015,0.00,VWS V13.00,2013-04-12 21:25:00,
2013-04-12 17:30:00,41.2,40.7,29.69,ENE,68,7.6,7.6,98,0.00,,OVC015,0.00,VWS V13.00,2013-04-12 21:30:00,
2013-04-12 17:35:00,41.2,40.7,29.69,NE,52,5.8,7.6,98,0.00,,OVC015,0.00,VWS V13.00,2013-04-12 21:35:00,
2013-04-12 17:40:00,41.2,40.7,29.69,East,79,5.8,7.6,98,0.00,,OVC015,0.00,VWS V13.00,2013-04-12 21:40:00,
2013-04-12 17:45:00,41.0,40.5,29.69,ENE,69,4.9,5.8,98,0.00,,OVC015,0.00,VWS V13.00,2013-04-12 21:45:00,
2013-04-12 17:50:00,41.0,40.5,29.69,ENE,57,6.3,6.7,98,0.00,,OVC015,0.00,VWS V13.00,2013-04-12 21:50:00,
2013-04-12 17:55:00,41.0,40.5,29.69,ENE,64,4.9,6.7,98,0.00,,OVC015,0.00,VWS V13.00,2013-04-12 21:55:00,
2013-04-12 18:00:00,40.8,40.3,29.69,ENE,64,5.8,6.7,98,0.00,,OVC015,0.00,VWS V13.00,2013-04-12 22:00:00,
2013-04-12 18:05:00,41.0,40.5,29.69,ENE,71,4.9,6.3,98,0.00,,OVC015,0.00,VWS V13.00,2013-04-12 22:05:00,
2013-04-12 18:10:00,41.0,40.5,29.69,ENE,67,4.9,6.3,98,0.00,,OVC015,0.00,VWS V13.00,2013-04-12 22:10:00,
2013-04-12 18:15:00,41.0,40.5,29.69,ENE,70,5.8,6.3,98,0.00,,OVC015,0.00,VWS V13.00,2013-04-12 22:15:00,
2013-04-12 18:20:00,41.2,40.7,29.69,NE,48,5.4,6.3,98,0.00,,OVC015,0.00,VWS V13.00,2013-04-12 22:20:00,
2013-04-12 18:25:00,41.0,40.5,29.69,ENE,62,5.8,8.1,98,0.00,,OVC015,0.00,VWS V13.00,2013-04-12 22:25:00,
2013-04-12 18:30:00,40.8,40.3,29.69,ENE,69,6.3,8.1,98,0.00,,OVC015,0.00,VWS V13.00,2013-04-12 22:30:00,
2013-04-12 18:35:00,40.8,40.3,29.69,ENE,78,6.7,8.1,98,0.00,,OVC015,0.00,VWS V13.00,2013-04-12 22:35:00,
2013-04-12 18:40:00,40.8,40.3,29.69,ENE,75,4.0,8.1,98,0.00,,OVC015,0.00,VWS V13.00,2013-04-12 22:40:00,
2013-04-12 18:45:00,40.6,40.1,29.69,NE,53,4.9,5.4,98,0.00,,OVC015,0.00,VWS V13.00,2013-04-12 22:45:00,
2013-04-12 18:50:00,40.6,40.1,29.69,NE,43,5.4,5.8,98,0.00,,OVC015,0.00,VWS V13.00,2013-04-12 22:50:00,
2013-04-12 18:55:00,40.6,40.1,29.69,ENE,76,6.3,7.2,98,0.00,,OVC015,0.00,VWS V13.00,2013-04-12 22:55:00,
2013-04-12 19:00:00,40.6,40.1,29.69,NE,36,5.8,6.3,98,0.00,,OVC015,0.00,VWS V13.00,2013-04-12 23:00:00,
2013-04-12 19:05:00,40.6,40.1,29.69,ENE,64,5.4,6.3,98,0.00,,OVC015,0.00,VWS V13.00,2013-04-12 23:05:00,
2013-04-12 19:11:00,40.8,40.3,29.69,ENE,64,3.6,6.3,98,0.00,,OVC015,0.00,VWS V13.00,2013-04-12 23:11:00,
2013-04-12 19:16:00,40.6,40.1,29.69,NNE,32,5.8,6.3,98,0.00,,OVC015,0.00,VWS V13.00,2013-04-12 23:16:00,
2013-04-12 19:21:00,40.6,40.1,29.69,ENE,57,5.8,5.8,98,0.00,,OVC015,0.00,VWS V13.00,2013-04-12 23:21:00,
2013-04-12 19:26:00,40.6,40.1,29.69,NE,54,4.9,5.8,98,0.00,,OVC015,0.00,VWS V13.00,2013-04-12 23:26:00,
2013-04-12 19:31:00,40.8,40.3,29.69,ENE,59,4.5,5.8,98,0.00,,OVC015,0.00,VWS V13.00,2013-04-12 23:31:00,
2013-04-12 19:36:00,40.6,40.1,29.69,NE,56,3.6,6.3,98,0.00,,OVC015,0.00,VWS V13.00,2013-04-12 23:36:00,
2013-04-12 19:41:00,40.6,40.1,29.69,NE,49,4.9,4.9,98,0.00,,OVC015,0.00,VWS V13.00,2013-04-12 23:41:00,
2013-04-12 19:46:00,40.6,40.1,29.69,NE,49,5.8,5.8,98,0.00,,OVC015,0.00,VWS V13.00,2013-04-12 23:46:00,
2013-04-12 19:51:00,40.8,40.3,29.69,NE,52,4.5,5.8,98,0.00,,OVC015,0.00,VWS V13.00,2013-04-12 23:51:00,
2013-04-12 19:56:00,40.8,40.3,29.69,NE,38,3.6,5.8,98,0.00,,OVC015,0.00,VWS V13.00,2013-04-12 23:56:00,
2013-04-12 20:01:00,40.8,40.3,29.69,ENE,63,4.9,5.8,98,0.00,,OVC015,0.00,VWS V13.00,2013-04-13 00:01:00,
2013-04-12 20:07:00,40.8,40.3,29.69,NNE,33,3.6,5.8,98,0.00,,OVC015,0.00,VWS V13.00,2013-04-13 00:07:00,
2013-04-12 20:12:00,40.8,40.3,29.69,NNE,29,4.5,5.8,98,0.00,,OVC015,0.00,VWS V13.00,2013-04-13 00:12:00,
2013-04-12 20:17:00,40.8,40.3,29.69,NE,35,4.9,5.8,98,0.00,,OVC015,0.00,VWS V13.00,2013-04-13 00:17:00,
2013-04-12 20:22:00,40.8,40.3,29.69,NE,39,4.0,4.0,98,0.00,,OVC015,0.00,VWS V13.00,2013-04-13 00:22:00,
2013-04-12 20:27:00,40.8,40.3,29.69,NE,36,3.6,5.4,98,0.00,,OVC015,0.00,VWS V13.00,2013-04-13 00:27:00,
2013-04-12 20:32:00,40.8,40.3,29.69,NE,47,3.6,5.4,98,0.00,,OVC015,0.00,VWS V13.00,2013-04-13 00:32:00,
2013-04-12 20:37:00,40.8,40.3,29.69,NE,42,3.6,6.3,98,0.00,,OVC015,0.00,VWS V13.00,2013-04-13 00:37:00,
2013-04-12 20:42:00,40.8,40.3,29.66,ENE,61,4.9,4.9,98,0.00,,OVC015,0.00,VWS V13.00,2013-04-13 00:42:00,
2013-04-12 20:47:00,40.8,40.3,29.66,NE,44,3.6,5.4,98,0.00,,OVC015,0.00,VWS V13.00,2013-04-13 00:47:00,
2013-04-12 20:52:00,40.6,40.1,29.69,NE,47,5.4,5.4,98,0.00,,OVC015,0.00,VWS V13.00,2013-04-13 00:52:00,
2013-04-12 20:57:00,40.6,40.1,29.69,NE,34,5.4,5.8,98,0.00,,OVC015,0.00,VWS V13.00,2013-04-13 00:57:00,
2013-04-12 21:03:00,40.8,40.3,29.69,NNE,32,4.9,5.4,98,0.00,,OVC015,0.00,VWS V13.00,2013-04-13 01:03:00,
2013-04-12 21:08:00,40.6,40.1,29.69,NNE,30,3.6,5.8,98,0.00,,OVC015,0.00,VWS V13.00,2013-04-13 01:08:00,
2013-04-12 21:13:00,40.8,40.3,29.69,NNE,32,4.9,5.8,98,0.00,,OVC015,0.00,VWS V13.00,2013-04-13 01:13:00,
2013-04-12 21:18:00,40.8,40.3,29.69,NE,42,4.9,5.8,98,0.00,,OVC015,0.00,VWS V13.00,2013-04-13 01:18:00,
2013-04-12 21:23:00,40.8,40.3,29.69,NE,43,4.0,5.4,98,0.00,,OVC015,0.00,VWS V13.00,2013-04-13 01:23:00,
2013-04-12 21:28:00,40.8,40.3,29.69,NE,38,4.9,5.4,98,0.00,,OVC015,0.00,VWS V13.00,2013-04-13 01:28:00,
2013-04-12 21:33:00,40.8,40.3,29.69,NNE,33,4.9,5.4,98,0.00,,OVC015,0.00,VWS V13.00,2013-04-13 01:33:00,
2013-04-12 21:38:00,40.8,40.3,29.69,NNE,23,2.7,5.4,98,0.00,,OVC015,0.00,VWS V13.00,2013-04-13 01:38:00,
2013-04-12 21:43:00,40.8,40.3,29.69,NNE,23,2.7,3.1,98,0.00,,OVC015,0.00,VWS V13.00,2013-04-13 01:43:00,
2013-04-12 21:48:00,40.8,40.3,29.69,NNE,23,4.0,4.9,98,0.00,,OVC015,0.00,VWS V13.00,2013-04-13 01:48:00,
2013-04-12 21:53:00,41.0,40.5,29.69,NE,39,4.5,4.9,98,0.00,,OVC015,0.00,VWS V13.00,2013-04-13 01:53:00,
2013-04-12 21:58:00,41.0,40.5,29.69,NE,36,3.6,4.9,98,0.00,,OVC015,0.00,VWS V13.00,2013-04-13 01:58:00,
2013-04-12 22:03:00,40.8,40.3,29.69,NE,36,2.7,3.6,98,0.00,,OVC015,0.00,VWS V13.00,2013-04-13 02:03:00,
2013-04-12 22:08:00,40.8,40.3,29.69,NE,36,3.1,4.0,98,0.00,,OVC015,0.00,VWS V13.00,2013-04-13 02:08:00,
2013-04-12 22:13:00,41.0,40.5,29.69,NE,56,4.5,5.4,98,0.00,,OVC015,0.00,VWS V13.00,2013-04-13 02:13:00,
2013-04-12 22:18:00,41.0,40.5,29.69,NE,45,4.0,5.4,98,0.00,,OVC015,0.00,VWS V13.00,2013-04-13 02:18:00,
2013-04-12 22:24:00,41.0,40.5,29.69,NE,44,0.0,3.1,98,0.00,,OVC015,0.00,VWS V13.00,2013-04-13 02:24:00,
2013-04-12 22:29:00,40.8,40.3,29.69,NE,44,0.0,3.1,98,0.00,,OVC015,0.00,VWS V13.00,2013-04-13 02:29:00,
2013-04-12 22:34:00,40.8,40.3,29.69,NE,39,3.6,4.9,98,0.00,,OVC015,0.00,VWS V13.00,2013-04-13 02:34:00,
2013-04-12 22:39:00,40.8,40.3,29.69,NE,34,4.0,5.4,98,0.00,,OVC015,0.00,VWS V13.00,2013-04-13 02:39:00,
2013-04-12 22:44:00,40.8,40.3,29.69,NNE,33,5.4,6.3,98,0.00,,OVC015,0.00,VWS V13.00,2013-04-13 02:44:00,
2013-04-12 22:49:00,40.8,40.3,29.69,NNE,33,3.6,6.3,98,0.00,,OVC015,0.00,VWS V13.00,2013-04-13 02:49:00,
2013-04-12 22:54:00,40.6,40.1,29.69,NNE,30,4.0,6.3,98,0.00,,OVC015,0.00,VWS V13.00,2013-04-13 02:54:00,
2013-04-12 22:59:00,40.6,40.1,29.69,NNE,30,4.9,6.3,98,0.00,,OVC015,0.00,VWS V13.00,2013-04-13 02:59:00,
2013-04-12 23:04:00,40.6,40.1,29.69,NNE,31,2.7,5.4,98,0.00,,OVC015,0.00,VWS V13.00,2013-04-13 03:04:00,
2013-04-12 23:09:00,40.3,39.8,29.69,NNE,32,0.0,5.4,98,0.00,,OVC015,0.00,VWS V13.00,2013-04-13 03:09:00,
2013-04-12 23:14:00,40.3,39.8,29.69,East,95,2.2,5.4,98,0.00,,OVC015,0.00,VWS V13.00,2013-04-13 03:14:00,
2013-04-12 23:19:00,40.3,39.8,29.69,East,95,0.0,5.4,98,0.00,,OVC015,0.00,VWS V13.00,2013-04-13 03:19:00,
2013-04-12 23:24:00,40.3,39.8,29.72,NNE,29,3.6,4.0,98,0.00,,OVC015,0.00,VWS V13.00,2013-04-13 03:24:00,
2013-04-12 23:29:00,40.3,39.8,29.72,NNE,29,3.6,4.0,98,0.00,,OVC015,0.00,VWS V13.00,2013-04-13 03:29:00,
2013-04-12 23:34:00,40.3,39.8,29.72,NNE,29,0.0,4.0,98,0.00,,OVC015,0.00,VWS V13.00,2013-04-13 03:34:00,
2013-04-12 23:39:00,40.3,39.8,29.72,NNE,29,2.2,4.0,98,0.00,,OVC015,0.00,VWS V13.00,2013-04-13 03:39:00,
2013-04-12 23:44:00,39.9,39.4,29.72,NE,35,2.7,3.6,98,0.00,,OVC015,0.00,VWS V13.00,2013-04-13 03:44:00,
2013-04-12 23:49:00,39.9,39.4,29.72,NE,35,3.6,3.6,98,0.00,,OVC015,0.00,VWS V13.00,2013-04-13 03:49:00,
2013-04-12 23:54:00,39.9,39.4,29.72,NE,35,3.1,4.0,98,0.00,,OVC015,0.00,VWS V13.00,2013-04-13 03:54:00,
2013-04-12 23:59:00,39.9,39.4,29.72,NE,35,3.6,4.5,98,0.00,,OVC015,0.00,VWS V13.00,2013-04-13 03:59:00,